EDT,Max TemperatureF,Mean TemperatureF,Min TemperatureF,Max Dew PointF,MeanDew PointF,Min DewpointF,Max Humidity, Mean Humidity, Min Humidity, Max Sea Level PressureIn, Mean Sea Level PressureIn, Min Sea Level PressureIn, Max VisibilityMiles, Mean VisibilityMiles, Min VisibilityMiles, Max Wind SpeedMPH, Mean Wind SpeedMPH, Max Gust SpeedMPH,PrecipitationIn, CloudCover, Events, WindDirDegrees
2013-10-1,74,63,51,61,57,51,100,81,61,30.05,30.01,29.97,10,4,0,21,7,25,0.00,4,Fog,228
2013-10-2,82,72,62,62,59,55,100,71,42,30.08,30.04,29.99,10,8,3,12,4,17,0.00,2,,254
2013-10-3,80,69,58,69,64,57,97,88,78,30.05,30.02,29.95,10,6,1,14,4,18,0.12,5,Rain,224
2013-10-4,77,71,65,70,66,63,100,87,74,30.06,30.02,29.97,10,7,1,18,7,64,0.84,5,Rain-Thunderstorm,206
2013-10-5,73,69,64,69,66,63,100,92,84,30.06,29.99,29.86,10,6,2,13,3,28,0.26,6,Rain-Thunderstorm,157
2013-10-6,71,63,54,67,62,52,93,86,79,29.87,29.76,29.66,10,8,0,24,9,37,0.59,7,Rain,210
2013-10-7,61,52,42,53,43,40,93,73,53,30.15,29.89,29.73,10,10,10,25,10,32,0.00,4,,248
2013-10-8,68,53,38,48,41,37,100,67,34,30.31,30.24,30.16,10,7,1,8,2,16,0.00,0,,117
2013-10-9,70,56,41,48,44,38,100,67,34,30.31,30.26,30.22,10,8,1,16,4,21,0.00,0,,84
2013-10-10,71,56,40,49,44,38,100,66,32,30.23,30.19,30.13,10,10,6,10,2,13,0.00,0,,70
2013-10-11,73,59,44,57,51,43,100,75,49,30.15,30.10,30.07,10,7,0,12,3,14,0.00,0,Fog,58
2013-10-12,79,63,47,59,51,46,100,69,38,30.12,30.08,30.04,10,6,0,10,2,14,0.00,4,Fog,115
2013-10-13,70,59,48,58,46,36,93,61,28,30.34,30.25,30.09,10,10,8,13,6,17,0.00,1,,316
2013-10-14,64,53,42,48,43,40,96,73,49,30.40,30.34,30.27,10,10,10,13,4,16,0.00,1,,37
2013-10-15,63,52,41,61,51,40,100,89,78,30.24,30.04,29.87,10,8,2,14,4,22,0.12,6,Rain,153
2013-10-16,63,55,46,61,52,43,100,76,51,29.94,29.87,29.84,10,8,5,22,10,26,0.00,4,Rain,241
2013-10-17,51,46,40,48,45,40,96,88,80,29.93,29.85,29.80,10,8,2,20,7,22,0.08,6,Rain,232
2013-10-18,64,52,40,45,41,38,93,68,43,29.95,29.92,29.88,10,9,5,22,8,26,0.00,1,,234
2013-10-19,49,45,41,43,40,35,96,84,71,29.94,29.85,29.79,10,8,3,18,8,22,0.25,6,Rain,242
2013-10-20,61,51,41,42,38,34,79,59,39,29.95,29.90,29.88,10,10,10,20,10,26,0.00,4,,215
2013-10-21,58,49,39,48,43,35,86,74,61,29.91,29.88,29.84,10,9,2,17,10,25,0.07,5,Rain,234
2013-10-22,49,41,32,34,29,26,89,67,45,29.98,29.94,29.90,10,10,10,20,10,24,T,3,Rain,245
2013-10-23,47,39,31,34,32,27,96,71,45,29.99,29.90,29.83,10,9,3,16,8,23,0.01,5,,288
2013-10-24,47,40,32,34,31,27,89,69,49,30.22,30.06,29.97,10,10,10,20,10,24,T,6,,263
2013-10-25,48,38,28,34,28,24,100,71,42,30.37,30.29,30.17,10,10,9,18,9,23,0.00,3,,242
2013-10-26,50,42,34,39,30,25,92,71,49,30.15,29.96,29.85,10,10,7,25,13,36,0.01,7,Rain,236
2013-10-27,53,43,33,34,32,29,100,71,41,30.10,30.05,30.02,10,10,10,17,4,20,0.00,3,,241
2013-10-28,55,42,28,40,33,26,100,75,50,30.38,30.24,30.07,10,10,10,14,4,16,0.00,2,,44
2013-10-29,55,43,31,41,36,29,89,70,51,30.43,30.36,30.24,10,10,9,10,4,14,0.00,0,,66
2013-10-30,64,49,33,56,43,33,100,76,52,30.22,30.13,29.95,10,7,2,10,2,14,0.07,3,Rain-Thunderstorm,153
2013-10-31,63,61,58,61,59,55,100,95,90,29.95,29.61,29.21,10,5,1,26,11,33,1.23,8,Rain-Thunderstorm,194